Regional Weather Roundup
Issued by NWS

Home | Current Version | Previous Version | Graphics & Text | Print | Product List | Glossary On
Versions: 1 2 3 4 5 6 7 8 9 10 11 12 13 14 15 16 17 18 19 20 21 22 23 24 25 26 27 28 29 30 31 32 33 34 35 36 37 38 39 40 41 42 43 44 45
000
ASUS45 KTFX 040110
RWRMT
MONTANA REGIONAL WEATHER ROUNDUP
NATIONAL WEATHER SERVICE GREAT FALLS MT
700 PM MDT MON AUG 03 2015

NOTE: "FAIR" INDICATES FEW OR NO CLOUDS BELOW 12000 FEET WITH NO
SIGNIFICANT WEATHER AND/OR OBSTRUCTIONS TO VISIBILITY.

MTZ001>007-043-040200-
WEST OF THE DIVIDE

CITY           SKY/WX    TMP DP  RH WIND       PRES   REMARKS
KALISPELL      MOCLDY    89  36  15 S3        29.71F SMOKE
MISSOULA       PTSUNNY   89  36  15 W17G29    29.77R
BUTTE          PTSUNNY   83  38  20 SW7       29.96R
MULLAN PASS    PTSUNNY   70  38  31 VRB5      30.05R
DEER LODGE       N/A     82  39  21 W16       29.92S
EUREKA           N/A     91  36  14 W7        29.72S
HAMILTON         N/A     88  34  14 S8        29.83R
LIBBY            N/A     90  30  12 NW5       29.75R
$$

MTZ008-052>055-040200-
SOUTHWEST MONTANA

CITY           SKY/WX    TMP DP  RH WIND       PRES   REMARKS
BOZEMAN        PTSUNNY   82  48  30 SE15      29.87F
DILLON         CLOUDY    79  48  33 S10       29.94R
W YELLOWSTONE  CLOUDY    64  48  55 SW13G21   30.15R
$$

MTZ009-010-012-014-046-048-049-054-040200-
EAST SLOPES AND CENTRAL MONTANA

CITY           SKY/WX    TMP DP  RH WIND       PRES   REMARKS
CUT BANK       PTSUNNY   91  37  15 SE13      29.79F
GREAT FALLS    MOSUNNY   91  42  18 SE9       29.78F
MALMSTROM AFB  MOSUNNY   92  40  15 SE20      29.76F
HELENA         PTSUNNY   92  43  18 SW9       29.78F
$$

MTZ011-013-016-021-045-047-050-051-040200-
NORTH CENTRAL MONTANA

CITY           SKY/WX    TMP DP  RH WIND       PRES   REMARKS
HAVRE          SUNNY     88  52  29 E20G25    29.78F
LEWISTOWN      PTSUNNY   87  47  24 E12       29.88F
CHINOOK          N/A     82  54  36 E14       29.80F
FORT BENTON      N/A     93  43  17 E10G16    29.75F
$$

MTZ017>020-022>027-061-062-040200-
NORTHEAST MONTANA

CITY           SKY/WX    TMP DP  RH WIND       PRES   REMARKS
GLASGOW        SUNNY     85  45  24 E16       29.87F
JORDAN           N/A     89  45  21 E16       29.86F
SIDNEY         SUNNY    N/A N/A N/A N7        29.91F
WOLF POINT     SUNNY     86  45  23 E10       29.89F
MALTA            N/A     87  52  30 E8        29.82F
POPLAR           N/A     82  46  28 E8        29.91S
$$

MTZ028>42-056>058-040200-
SOUTHCENTRAL AND SOUTHEAST MONTANA

CITY           SKY/WX    TMP DP  RH WIND       PRES   REMARKS
BAKER          MOSUNNY   83  48  29 E14       29.94F
BILLINGS       PTSUNNY   90  46  21 E10       29.86S
LIVINGSTON     PTSUNNY   84  46  26 E10       29.90S
MILES CITY     PTSUNNY   87  47  24 E12       29.86S
FORSYTH          N/A     88  45  22 E12       29.85R
LAUREL           N/A     89  52  28 NE3       29.85F
$$

REGIONAL REPORTS...DAKOTAS

CITY           SKY/WX    TMP DP  RH WIND       PRES   REMARKS
WILLISTON      SUNNY     82  43  25 E9        29.93F
MINOT          SUNNY     74  48  39 NE5       29.94F
DICKINSON      SUNNY     76  52  43 E9        29.94F
CROSBY         FAIR      77  54  44 E3        29.95F
BISMARCK       SUNNY     78  47  33 NE8       29.95S
GRAND FORKS    PTCLDY    75  50  41 NW3       29.90S
FARGO          CLEAR     75  49  39 N7        29.91F
BUFFALO SD       N/A     80  52  37 SE10      29.90R
RAPID CITY     PTSUNNY   78  62  57 SE9       29.95R
$$

REGIONAL REPORTS...WYOMING/IDAHO/WASHINGTON

CITY           SKY/WX    TMP DP  RH WIND       PRES   REMARKS
GILLETTE       CLOUDY    83  54  36 S18       29.97R
SHERIDAN       CLOUDY    84  54  35 E7        29.90S
BUFFALO WY     CLOUDY    75  48  38 S32G49    30.01R
CODY           CLOUDY    77  50  38 N7        29.95F
YELLOWSTONE LA   N/A     63  45  51 W9        30.24R
IDAHO FALLS    CLOUDY    71  54  54 SE10      30.06R
SALMON         CLOUDY    82  46  28 N3        29.88R
BOISE          PTSUNNY   91  47  21 NE3       29.85F
SPOKANE        CLOUDY    86  41  20 SW22      29.82S
$$

REGIONAL REPORTS...ALBERTA

CITY           SKY/WX    TMP DP  RH WIND       PRES   REMARKS
EDMONTON       MOSUNNY   79  61  53 E7        29.75S
CALGARY        LGT RAIN  81  55  41 SE9       29.80S
LETHBRIDGE     PTSUNNY   88  52  29 E6        29.74F
MEDICINE HAT   CLOUDY    90  48  24 SE17G24   29.75F
WATERTON GATE    N/A     82  64  54 E1          N/A
MILK RIVER       N/A     88  48  25 SE10        N/A
$$

REGIONAL REPORTS...SASKATCHEWAN

CITY           SKY/WX    TMP DP  RH WIND       PRES   REMARKS
SWIFT CURRENT  PTSUNNY   77  55  47 SE16G26   29.91F
REGINA         MOSUNNY   75  54  46 NE10      29.95F
SASKATOON      PTSUNNY   77  52  41 SE12      29.94F
CYPRESS HILLS    N/A     75  48  38 SE12G18     N/A
VAL MARIE        N/A     82  48  30 SE12G17     N/A
ROCKGLEN         N/A     75  52  43 NE2         N/A
ASSINIBOIA       N/A     81  54  39 E15G25      N/A
$$


USA.gov is the U.S. government's official web portal to all federal, state and local government web resources and services.